User: anonymous   Login
Location: Caltech
(34.1382°N, 118.1253°W)
Time: 13:15:27
(UTC-07:00)
Language:

Cosmos 1125 Rocket - Orbit

View from above orbital plane
View from above orbital plane
View from above satellite
View from above satellite

Ground track
Ground track

The orbit data is extracted from the following two-line orbital elements,

1 11511U 79078B   16210.45563479  .00000115  00000-0  47685-4 0  9994
2 11511  74.0354 190.2949 0015161 157.7384 202.4430 14.36722792932122
Epoch (UTC): 28 July 2016 10:56:06
Eccentricity: 0.0015161
inclination: 74.0354°
perigee height: 758 km
apogee height: 780 km
right ascension of ascending node: 190.2949°
argument of perigee: 157.7384°
revolutions per day: 14.36722792
mean anomaly at epoch: 202.4430°
orbit number at epoch: 93212

The dashed part of the orbit path shows where the satellite is in the earth's shadow,  

DLR